ONEWEB-0195, 48240

Orbit data source: Space-Track

ONEWEB-0195, 48240 is a payload satellite owned by One Web (NAA) (UK) in LEO that was launched on Sun, 25 Apr 2021 UTC via a SOYUZ-2-1B launch vehicle from the Vostochny Cosmodrome (VOSTO). Payload-class satellites include a variety of spacecraft equipped with specific instruments for various scientific and technological missions. These include communications satellites like Starlink; space stations such as the ISS; scientific satellites like the Hubble; Earth observation satellites from companies like Planet Labs, Umbra, and HawkEye 360; GPS; miniature CubeSats for education and research; and military/defense satellites.

Loading next visibility...
Identifier
48240, 2021-031AG
Orbit
LEO
Country
Flag of UKUK
Related business
Manufacturer
One Web
Mission
Operational Commercial Communications
Bus & Motor
ARROW, Unknown motor
Mass
148 kg wet, ~140 kg dry
Launch date (UTC)
2021-04-25 (5 years ago)
Launch vehicle
SOYUZ-2-1B
Launch site
Vostochny Cosmodrome (VOSTO)
Object type
Payload
Rocket body
Debris
Shape & HBR
Trap Box + 2 Pan, 6.7 m
Radar Cross Section
3.464 m², Large (>1 m²)

Expand to show TLE details & history
Last TLE update: 1 day ago

TLE from 1 day ago
0 ONEWEB-0195
1 48240U 21031AG  25306.45504306  .00000201  00000-0  50767-3 0  9999
2 48240  87.9016 334.8539 0002246  91.5804 268.5583 13.14502801218369
Epoch: 2025-11-02T10:55Z
TLE epoch observation values (Epoch: 2025-11-02T10:55:15.720Z)
Latitude
-0.00002°
Longitude
129.06787°
Altitude
1,208.727 km
Speed
7.25 km/s
True Right ascension
22h 19m 24s
True Declination
0° 00' 00"
Sunlit
Object was in daylight at epoch
Visualization orbit readout
Latitude
Unknown
Longitude
Unknown
Altitude
Unknown
Speed
Unknown
Apparent Right ascension
Unknown
Apparent Declination
Unknown
Sunlit
N/A
Visualization observer readout
Local Sidereal Time
16:57:52
Azimuth
Unknown
Elevation
Unknown
Doppler factor
Unknown
Orbital elements
Apogee altitude
1,204.607 km
Perigee altitude
1,201.201 km
Semi-major axis
7,581.041 km
Eccentricity
0.00022
Inclination
87.9016°
RAAN
334.8539°
Arg. of periapsis
91.5804°
True anomaly
268.53257°
Mean anomaly
268.5583°
Eccentric anomaly
268.54544°
Mean motion
3.28814 °/min
Orbital period
109.48 mins
BSTAR
0.00050767
Loading maneuver chart data...
Computing Atmospheric mass density...
Loading historical data...
Loading historical data...
Loading historical data...
Loading historical data...
Loading historical data...
Loading historical data...
Loading historical data...

Documentation

Showing up to 5 results
|